UAE1212 LKPR-LSGG

Flight info

Callsign UAE1212
Flight time 1h 16m
Altitude 38000
Route BALTU DCT DONAD DCT OKG L984 KULOK Z715 ANELA N869 TEDGO/N0440F390 N869 NATOR DCT LUTIX DCT BENOT
Aircraft A20N/M-SDE2E3FGHIRWXY/LB1

Departure

Time 2026-05-04 15:05
Airport Václav Havel Airport Prague (LKPR)

Arrival

Time 2026-05-04 16:22
Airport Geneva International Airport (LSGG)
Time Latitude Longitude Altitude Speed Heading
2026-05-04 14:51 50.10919 14.26612 1172 ft 0 kts 214°
2026-05-04 14:55 50.10922 14.26615 1172 ft 1 kts 216°
2026-05-04 14:55 50.10929 14.26623 1173 ft 1 kts 219°
2026-05-04 14:56 50.10935 14.26631 1174 ft 1 kts 220°
2026-05-04 14:56 50.10941 14.26639 1174 ft 1 kts 220°
2026-05-04 14:56 50.10947 14.26647 1171 ft 1 kts 222°
2026-05-04 14:56 50.10953 14.26655 1173 ft 1 kts 239°
2026-05-04 14:57 50.10956 14.26667 1174 ft 1 kts 267°
2026-05-04 14:57 50.10956 14.26679 1175 ft 1 kts 301°
2026-05-04 14:57 50.10954 14.26683 1176 ft 0 kts 306°
2026-05-04 14:59 50.10972 14.26645 1174 ft 11 kts 307°
2026-05-04 14:59 50.10962 14.26427 1172 ft 14 kts 219°
2026-05-04 15:00 50.10881 14.26334 1172 ft 15 kts 214°
2026-05-04 15:00 50.10788 14.26236 1173 ft 17 kts 214°
2026-05-04 15:00 50.10668 14.26109 1175 ft 24 kts 215°
2026-05-04 15:01 50.10508 14.25868 1184 ft 8 kts 245°
2026-05-04 15:01 50.10491 14.25769 1185 ft 17 kts 258°
2026-05-04 15:01 50.10457 14.25498 1177 ft 30 kts 259°
2026-05-04 15:01 50.10414 14.25162 1171 ft 33 kts 259°
2026-05-04 15:02 50.10369 14.24797 1171 ft 34 kts 259°
2026-05-04 15:02 50.10324 14.24435 1177 ft 34 kts 259°
2026-05-04 15:02 50.10281 14.24086 1184 ft 32 kts 259°
2026-05-04 15:02 50.10240 14.23760 1191 ft 30 kts 259°
2026-05-04 15:03 50.10198 14.23444 1194 ft 30 kts 255°
2026-05-04 15:03 50.10115 14.23155 1199 ft 28 kts 245°
2026-05-04 15:03 50.10050 14.22934 1204 ft 17 kts 246°
2026-05-04 15:03 50.10062 14.22760 1205 ft 17 kts 313°
2026-05-04 15:04 50.10181 14.22721 1203 ft 19 kts 24°
2026-05-04 15:04 50.10253 14.22864 1201 ft 15 kts 65°
2026-05-04 15:04 50.10356 14.23209 1191 ft 74 kts 66°
2026-05-04 15:04 50.10688 14.24323 1176 ft 150 kts 65°
2026-05-04 15:05 50.11207 14.26075 1342 ft 195 kts 65°
2026-05-04 15:05 50.11803 14.28055 2001 ft 214 kts 65°
2026-05-04 15:05 50.12240 14.29499 2508 ft 223 kts 64°
2026-05-04 15:05 50.12945 14.31818 3198 ft 241 kts 64°
2026-05-04 15:06 50.13680 14.34259 3813 ft 263 kts 65°
2026-05-04 15:06 50.14469 14.36900 4674 ft 271 kts 65°
2026-05-04 15:06 50.15280 14.39615 5662 ft 276 kts 65°
2026-05-04 15:07 50.16949 14.45102 7459 ft 289 kts 57°
2026-05-04 15:07 50.17831 14.46711 8062 ft 292 kts 39°
2026-05-04 15:07 50.20035 14.48373 9109 ft 294 kts
2026-05-04 15:07 50.22021 14.48279 9971 ft 293 kts 341°
2026-05-04 15:08 50.23305 14.47457 10440 ft 297 kts 326°
2026-05-04 15:08 50.25045 14.45544 10766 ft 318 kts 317°
2026-05-04 15:08 50.26766 14.43368 11084 ft 337 kts 318°
2026-05-04 15:08 50.28671 14.41117 11889 ft 342 kts 321°
2026-05-04 15:09 50.30647 14.38959 12723 ft 347 kts 323°
2026-05-04 15:09 50.32632 14.36882 13557 ft 352 kts 323°
2026-05-04 15:09 50.34221 14.35253 14127 ft 355 kts 323°
2026-05-04 15:10 50.37533 14.31027 15360 ft 355 kts 302°
2026-05-04 15:10 50.38267 14.29074 15775 ft 354 kts 290°
2026-05-04 15:10 50.38745 14.21912 17050 ft 354 kts 256°
2026-05-04 15:11 50.37882 14.18295 17744 ft 357 kts 243°
2026-05-04 15:11 50.36804 14.14759 18399 ft 361 kts 244°
2026-05-04 15:11 50.35720 14.11165 19023 ft 364 kts 244°
2026-05-04 15:11 50.34646 14.07593 19637 ft 367 kts 244°
2026-05-04 15:12 50.33689 14.04406 20154 ft 370 kts 244°
2026-05-04 15:12 50.32588 14.00753 20763 ft 374 kts 244°
2026-05-04 15:12 50.31572 13.97398 21327 ft 377 kts 242°
2026-05-04 15:12 50.30454 13.93699 21904 ft 380 kts 244°
2026-05-04 15:13 50.29321 13.89934 22493 ft 384 kts 244°
2026-05-04 15:13 50.28170 13.86117 23065 ft 388 kts 244°
2026-05-04 15:13 50.27029 13.82347 23619 ft 391 kts 244°
2026-05-04 15:13 50.26103 13.79298 24040 ft 393 kts 244°
2026-05-04 15:14 50.24921 13.75417 24578 ft 394 kts 244°
2026-05-04 15:14 50.23834 13.71851 25027 ft 397 kts 244°
2026-05-04 15:14 50.22741 13.68384 25478 ft 398 kts 241°
2026-05-04 15:14 50.21307 13.64606 25964 ft 400 kts 239°
2026-05-04 15:15 50.19888 13.60946 26427 ft 403 kts 239°
2026-05-04 15:15 50.18441 13.57196 26889 ft 405 kts 239°
2026-05-04 15:15 50.16991 13.53440 27327 ft 407 kts 239°
2026-05-04 15:16 50.14043 13.45810 28183 ft 411 kts 239°
2026-05-04 15:16 50.12560 13.41981 28602 ft 413 kts 239°
2026-05-04 15:16 50.09860 13.34084 29340 ft 417 kts 250°
2026-05-04 15:17 50.09064 13.29703 29730 ft 419 kts 258°
2026-05-04 15:17 50.08642 13.21102 30390 ft 424 kts 267°
2026-05-04 15:17 50.08535 13.16489 30724 ft 426 kts 266°
2026-05-04 15:18 50.08418 13.11804 31053 ft 428 kts 266°
2026-05-04 15:18 50.08309 13.07316 31459 ft 427 kts 266°
2026-05-04 15:18 50.08201 13.02625 31889 ft 426 kts 266°
2026-05-04 15:19 50.07988 12.93775 32743 ft 423 kts 266°
2026-05-04 15:19 50.07887 12.89742 33114 ft 422 kts 266°
2026-05-04 15:19 50.07643 12.80400 33937 ft 420 kts 266°
2026-05-04 15:20 50.07518 12.75827 34286 ft 419 kts 266°
2026-05-04 15:20 50.07396 12.71350 34555 ft 419 kts 266°
2026-05-04 15:20 50.07271 12.66835 34835 ft 419 kts 266°
2026-05-04 15:20 50.07160 12.62830 35077 ft 418 kts 266°
2026-05-04 15:21 50.07032 12.58276 35369 ft 418 kts 266°
2026-05-04 15:21 50.06902 12.53719 35647 ft 417 kts 266°
2026-05-04 15:21 50.06642 12.44773 36163 ft 417 kts 266°
2026-05-04 15:22 50.06522 12.40261 36409 ft 416 kts 268°
2026-05-04 15:22 50.06573 12.35720 36662 ft 416 kts 270°
2026-05-04 15:22 50.06709 12.26700 37151 ft 415 kts 270°
2026-05-04 15:23 50.06763 12.22749 37351 ft 415 kts 270°
2026-05-04 15:23 50.06796 12.20228 37485 ft 414 kts 269°
2026-05-04 15:23 50.06831 12.17151 37581 ft 412 kts 266°
2026-05-04 15:24 50.07020 11.99656 37967 ft 414 kts 269°
2026-05-04 15:25 50.07084 11.91464 37989 ft 413 kts 269°
2026-05-04 15:26 50.07184 11.78249 37985 ft 413 kts 269°
2026-05-04 15:26 50.06143 11.65256 37985 ft 410 kts 246°
2026-05-04 15:27 50.01441 11.54100 37968 ft 412 kts 226°
2026-05-04 15:28 49.95417 11.44647 37974 ft 412 kts 227°
2026-05-04 15:29 49.88859 11.35935 37972 ft 414 kts 218°
2026-05-04 15:30 49.73173 11.16526 37978 ft 412 kts 227°
2026-05-04 15:31 49.67512 11.07419 37978 ft 412 kts 227°
2026-05-04 15:32 49.58646 10.93311 37983 ft 412 kts 227°
2026-05-04 15:34 49.48672 10.77531 37962 ft 413 kts 227°
2026-05-04 15:34 49.42649 10.68051 37990 ft 412 kts 226°
2026-05-04 15:35 49.36694 10.58516 37980 ft 412 kts 227°
2026-05-04 15:36 49.30886 10.49330 37961 ft 413 kts 225°
2026-05-04 15:36 49.26816 10.43165 37973 ft 412 kts 225°
2026-05-04 15:37 49.22747 10.36980 37988 ft 412 kts 226°
2026-05-04 15:37 49.18834 10.30910 37999 ft 412 kts 226°
2026-05-04 15:38 49.14832 10.24672 37989 ft 413 kts 227°
2026-05-04 15:38 49.11192 10.17997 37987 ft 413 kts 232°
2026-05-04 15:39 49.07613 10.11187 37978 ft 413 kts 231°
2026-05-04 15:40 49.02207 10.00973 37977 ft 413 kts 231°
2026-05-04 15:40 48.98581 9.94145 37966 ft 413 kts 231°
2026-05-04 15:41 48.94986 9.87390 37965 ft 413 kts 231°
2026-05-04 15:41 48.91965 9.81728 37968 ft 413 kts 231°
2026-05-04 15:42 48.87849 9.74032 37968 ft 413 kts 231°
2026-05-04 15:42 48.84223 9.67273 37973 ft 413 kts 231°
2026-05-04 15:43 48.80596 9.60530 37976 ft 413 kts 231°
2026-05-04 15:43 48.77559 9.54896 37975 ft 413 kts 231°
2026-05-04 15:44 48.73890 9.48110 37975 ft 413 kts 231°
2026-05-04 15:44 48.70797 9.42399 37966 ft 413 kts 231°
2026-05-04 15:45 48.67156 9.35691 37967 ft 412 kts 230°
2026-05-04 15:45 48.63585 9.29126 37967 ft 412 kts 230°
2026-05-04 15:46 48.60251 9.22621 37969 ft 412 kts 234°
2026-05-04 15:46 48.56929 9.15516 37972 ft 411 kts 234°
2026-05-04 15:47 48.53615 9.08476 37971 ft 411 kts 234°
2026-05-04 15:47 48.50307 9.01487 37977 ft 412 kts 234°
2026-05-04 15:48 48.46952 8.94420 37955 ft 411 kts 234°
2026-05-04 15:48 48.41935 8.83885 37964 ft 411 kts 233°
2026-05-04 15:49 48.38561 8.76825 37971 ft 411 kts 233°
2026-05-04 15:49 48.35253 8.69919 37982 ft 412 kts 233°
2026-05-04 15:50 48.31907 8.62953 37976 ft 412 kts 233°
2026-05-04 15:50 48.29081 8.57081 37987 ft 412 kts 233°
2026-05-04 15:51 48.25679 8.50027 37973 ft 412 kts 233°
2026-05-04 15:51 48.22352 8.43145 37967 ft 413 kts 233°
2026-05-04 15:52 48.18877 8.36297 37977 ft 412 kts 228°
2026-05-04 15:52 48.14725 8.30269 37969 ft 412 kts 219°
2026-05-04 15:53 48.09982 8.25328 37994 ft 412 kts 213°
2026-05-04 15:53 48.05167 8.20719 37585 ft 408 kts 213°
2026-05-04 15:54 48.02701 8.18345 36975 ft 408 kts 213°
2026-05-04 15:54 48.00333 8.16066 36354 ft 407 kts 213°
2026-05-04 15:54 47.97971 8.13797 35683 ft 407 kts 213°
2026-05-04 15:54 47.95562 8.11483 34994 ft 407 kts 213°
2026-05-04 15:55 47.93184 8.09203 34346 ft 407 kts 213°
2026-05-04 15:55 47.90848 8.06965 33673 ft 407 kts 213°
2026-05-04 15:55 47.88589 8.04803 32926 ft 407 kts 213°
2026-05-04 15:55 47.86162 8.02483 32086 ft 409 kts 212°
2026-05-04 15:56 47.83755 8.00184 31277 ft 410 kts 212°
2026-05-04 15:56 47.81295 7.97839 30445 ft 412 kts 212°
2026-05-04 15:56 47.79757 7.96372 30003 ft 411 kts 212°
2026-05-04 15:56 47.77442 7.94166 29359 ft 407 kts 212°
2026-05-04 15:57 47.75000 7.91846 28650 ft 404 kts 212°
2026-05-04 15:57 47.72640 7.89609 28004 ft 401 kts 212°
2026-05-04 15:57 47.70260 7.87356 27337 ft 398 kts 212°
2026-05-04 15:57 47.67935 7.85158 26713 ft 395 kts 212°
2026-05-04 15:58 47.65832 7.83170 26151 ft 392 kts 212°
2026-05-04 15:58 47.63521 7.80992 25536 ft 389 kts 212°
2026-05-04 15:58 47.62006 7.79564 25135 ft 388 kts 212°
2026-05-04 15:58 47.59715 7.77407 24528 ft 385 kts 213°
2026-05-04 15:59 47.57456 7.75281 23944 ft 383 kts 213°
2026-05-04 15:59 47.55221 7.73178 23334 ft 381 kts 213°
2026-05-04 15:59 47.52992 7.71080 22707 ft 377 kts 213°
2026-05-04 15:59 47.50804 7.69024 22087 ft 374 kts 212°
2026-05-04 16:00 47.48608 7.66961 21455 ft 372 kts 212°
2026-05-04 16:00 47.46415 7.64904 20855 ft 368 kts 212°
2026-05-04 16:00 47.44269 7.62894 20272 ft 366 kts 212°
2026-05-04 16:00 47.42099 7.60864 19700 ft 364 kts 212°
2026-05-04 16:01 47.39928 7.58836 19135 ft 361 kts 212°
2026-05-04 16:01 47.37804 7.56853 18610 ft 359 kts 212°
2026-05-04 16:01 47.35780 7.54965 18036 ft 357 kts 213°
2026-05-04 16:01 47.33750 7.53070 17486 ft 354 kts 213°
2026-05-04 16:02 47.31817 7.51270 16934 ft 349 kts 213°
2026-05-04 16:02 47.30097 7.49670 16516 ft 348 kts 212°
2026-05-04 16:02 47.27023 7.46892 15625 ft 344 kts 211°
2026-05-04 16:03 47.24959 7.45034 15208 ft 338 kts 213°
2026-05-04 16:03 47.22984 7.43171 15083 ft 342 kts 211°
2026-05-04 16:03 47.20961 7.41263 15052 ft 341 kts 213°
2026-05-04 16:03 47.18958 7.39351 15046 ft 341 kts 213°
2026-05-04 16:04 47.17162 7.37436 15048 ft 341 kts 220°
2026-05-04 16:04 47.13957 7.32373 14507 ft 338 kts 231°
2026-05-04 16:04 47.12489 7.29623 14028 ft 337 kts 231°
2026-05-04 16:05 47.11022 7.26895 13504 ft 335 kts 231°
2026-05-04 16:05 47.09912 7.24843 13199 ft 331 kts 230°
2026-05-04 16:05 47.07031 7.19548 13048 ft 334 kts 230°
2026-05-04 16:06 47.05569 7.16868 13045 ft 333 kts 230°
2026-05-04 16:06 47.01794 7.09967 13050 ft 333 kts 230°
2026-05-04 16:07 46.99899 7.06504 12850 ft 331 kts 230°
2026-05-04 16:07 46.95641 6.98728 11394 ft 325 kts 230°
2026-05-04 16:08 46.94220 6.96140 10872 ft 323 kts 230°
2026-05-04 16:08 46.89539 6.89674 10052 ft 292 kts 206°
2026-05-04 16:09 46.85940 6.87549 10048 ft 271 kts 202°
2026-05-04 16:09 46.82438 6.85413 10046 ft 271 kts 203°
2026-05-04 16:10 46.79507 6.83619 10046 ft 270 kts 203°
2026-05-04 16:11 46.74287 6.80476 9204 ft 268 kts 202°
2026-05-04 16:11 46.72561 6.79445 8820 ft 268 kts 202°
2026-05-04 16:12 46.67390 6.76351 8072 ft 267 kts 202°
2026-05-04 16:12 46.63344 6.71504 8055 ft 270 kts 227°
2026-05-04 16:13 46.60855 6.67425 8061 ft 270 kts 226°
2026-05-04 16:13 46.58342 6.63348 8063 ft 270 kts 226°
2026-05-04 16:14 46.55812 6.59250 8065 ft 270 kts 226°
2026-05-04 16:14 46.53326 6.55228 8065 ft 269 kts 226°
2026-05-04 16:15 46.49624 6.49246 8052 ft 269 kts 226°
2026-05-04 16:16 46.47101 6.45188 7501 ft 266 kts 226°
2026-05-04 16:16 46.43388 6.39756 6996 ft 239 kts 223°
2026-05-04 16:17 46.41151 6.36510 7000 ft 224 kts 223°
2026-05-04 16:18 46.37886 6.31640 6991 ft 222 kts 224°
2026-05-04 16:18 46.36815 6.30043 6995 ft 222 kts 223°
2026-05-04 16:19 46.33610 6.25318 6685 ft 222 kts 223°
2026-05-04 16:19 46.31482 6.22274 4340 ft 277 kts 222°
2026-05-04 16:20 46.27542 6.16305 2545 ft 219 kts 229°
2026-05-04 16:20 46.25760 6.13706 1931 ft 162 kts 224°
2026-05-04 16:21 46.23931 6.11041 1403 ft 73 kts 226°
2026-05-04 16:22 46.23573 6.10721 1399 ft 0 kts 200°
2026-05-04 16:22 46.23402 6.10631 1413 ft 7 kts 219°
2026-05-04 16:23 46.23275 6.10608 1409 ft 0 kts 181°
2026-05-04 16:25 46.23178 6.10649 1404 ft 6 kts 159°
2026-05-04 16:26 46.23130 6.10701 1405 ft 0 kts 135°